PHMAS EHBK-EDXW

Flight info

Callsign PHMAS
Flight time N/A
Altitude 23000
Route NETEX Z283 VEBAK L179 MEVEL Y850 JUWGI Z529 SUQIF DCT ABFAD DCT OLDIP
Aircraft PC12/L-SDFGRWY/S

Departure

Time N/A
Airport Maastricht Aachen Airport (EHBK)

Arrival

Time 2026-04-28 19:38
Airport Westerland Sylt Airport (EDXW)
Time Latitude Longitude Altitude Speed Heading
2026-04-28 18:32 51.32916 6.27200 20537 ft 223 kts 16°
2026-04-28 18:33 51.34358 6.28043 20853 ft 223 kts 13°
2026-04-28 18:33 51.35825 6.28898 21215 ft 224 kts 13°
2026-04-28 18:33 51.37293 6.29771 21530 ft 226 kts 13°
2026-04-28 18:33 51.38768 6.30645 21836 ft 227 kts 13°
2026-04-28 18:34 51.40259 6.31523 22100 ft 230 kts 13°
2026-04-28 18:34 51.41793 6.32426 22236 ft 238 kts 14°
2026-04-28 18:34 51.43355 6.33350 22372 ft 244 kts 14°
2026-04-28 18:34 51.44948 6.34315 22510 ft 248 kts 17°
2026-04-28 18:35 51.46363 6.35998 22644 ft 261 kts 45°
2026-04-28 18:35 51.47486 6.38321 22786 ft 265 kts 50°
2026-04-28 18:35 51.48581 6.40736 22924 ft 268 kts 50°
2026-04-28 18:35 51.49694 6.43155 23066 ft 269 kts 50°
2026-04-28 18:36 51.50809 6.45534 23201 ft 271 kts 49°
2026-04-28 18:36 51.51953 6.47975 23208 ft 276 kts 50°
2026-04-28 18:36 51.53117 6.50474 23217 ft 281 kts 50°
2026-04-28 18:36 51.54290 6.52998 23216 ft 284 kts 50°
2026-04-28 18:37 51.55480 6.55556 23220 ft 286 kts 50°
2026-04-28 18:37 51.56668 6.58114 23219 ft 286 kts 50°
2026-04-28 18:37 51.57860 6.60681 23220 ft 286 kts 50°
2026-04-28 18:37 51.59050 6.63247 23226 ft 286 kts 50°
2026-04-28 18:38 51.60238 6.65813 23228 ft 286 kts 50°
2026-04-28 18:38 51.61411 6.68347 23230 ft 286 kts 50°
2026-04-28 18:38 51.62598 6.70915 23233 ft 285 kts 50°
2026-04-28 18:38 51.63782 6.73481 23232 ft 285 kts 50°
2026-04-28 18:39 51.64967 6.76052 23232 ft 285 kts 50°
2026-04-28 18:39 51.65751 6.77753 23235 ft 285 kts 50°
2026-04-28 18:39 51.66931 6.80316 23234 ft 285 kts 50°
2026-04-28 18:39 51.68110 6.82880 23238 ft 285 kts 50°
2026-04-28 18:40 51.69288 6.85444 23234 ft 285 kts 50°
2026-04-28 18:40 51.70468 6.88014 23238 ft 284 kts 50°
2026-04-28 18:40 51.71647 6.90586 23240 ft 284 kts 50°
2026-04-28 18:40 51.72821 6.93149 23242 ft 284 kts 50°
2026-04-28 18:41 51.73982 6.95685 23243 ft 284 kts 50°
2026-04-28 18:41 51.75158 6.98256 23242 ft 284 kts 51°
2026-04-28 18:41 51.76331 7.00826 23243 ft 284 kts 51°
2026-04-28 18:41 51.77502 7.03393 23247 ft 283 kts 51°
2026-04-28 18:42 51.78674 7.05963 23244 ft 283 kts 51°
2026-04-28 18:42 51.79828 7.08497 23248 ft 283 kts 51°
2026-04-28 18:42 51.80996 7.11065 23247 ft 283 kts 51°
2026-04-28 18:42 51.82162 7.13632 23249 ft 283 kts 51°
2026-04-28 18:43 51.83326 7.16195 23253 ft 283 kts 51°
2026-04-28 18:43 51.84492 7.18765 23255 ft 283 kts 51°
2026-04-28 18:43 51.85681 7.21290 23251 ft 280 kts 44°
2026-04-28 18:43 51.87027 7.23556 23256 ft 279 kts 42°
2026-04-28 18:44 51.88361 7.25787 23258 ft 279 kts 43°
2026-04-28 18:44 51.91051 7.30344 23264 ft 280 kts 43°
2026-04-28 18:44 51.92400 7.32624 23271 ft 280 kts 43°
2026-04-28 18:45 51.93745 7.34899 23276 ft 280 kts 43°
2026-04-28 18:45 51.95092 7.37180 23276 ft 279 kts 43°
2026-04-28 18:45 51.96435 7.39458 23275 ft 280 kts 43°
2026-04-28 18:45 51.97781 7.41743 23281 ft 279 kts 43°
2026-04-28 18:46 51.99104 7.43990 23286 ft 279 kts 43°
2026-04-28 18:46 52.00505 7.46157 23290 ft 273 kts 28°
2026-04-28 18:46 52.02252 7.47138 23290 ft 264 kts
2026-04-28 18:46 52.04060 7.47739 23292 ft 265 kts
2026-04-28 18:47 52.05857 7.48491 23296 ft 267 kts 11°
2026-04-28 18:47 52.07644 7.49342 23299 ft 268 kts 12°
2026-04-28 18:47 52.09442 7.50175 23299 ft 268 kts 11°
2026-04-28 18:47 52.11218 7.50962 23299 ft 268 kts 11°
2026-04-28 18:48 52.13017 7.51759 23301 ft 268 kts 11°
2026-04-28 18:48 52.14816 7.52568 23303 ft 268 kts 11°
2026-04-28 18:48 52.16618 7.53382 23302 ft 268 kts 11°
2026-04-28 18:48 52.18417 7.54191 23299 ft 268 kts 11°
2026-04-28 18:49 52.20218 7.55001 23300 ft 268 kts 11°
2026-04-28 18:49 52.21411 7.55538 23303 ft 268 kts 11°
2026-04-28 18:49 52.23820 7.56625 23298 ft 268 kts 11°
2026-04-28 18:49 52.25594 7.57426 23299 ft 268 kts 11°
2026-04-28 18:50 52.27395 7.58240 23299 ft 268 kts 11°
2026-04-28 18:50 52.29194 7.59053 23297 ft 268 kts 11°
2026-04-28 18:50 52.30994 7.59867 23296 ft 268 kts 11°
2026-04-28 18:50 52.32791 7.60682 23294 ft 268 kts 11°
2026-04-28 18:51 52.34588 7.61496 23300 ft 268 kts 11°
2026-04-28 18:51 52.36385 7.62306 23297 ft 268 kts 11°
2026-04-28 18:51 52.38185 7.63124 23296 ft 268 kts 11°
2026-04-28 18:51 52.39984 7.63947 23301 ft 268 kts 11°
2026-04-28 18:52 52.41778 7.64764 23297 ft 268 kts 11°
2026-04-28 18:52 52.43552 7.65570 23299 ft 268 kts 11°
2026-04-28 18:52 52.45346 7.66386 23301 ft 268 kts 11°
2026-04-28 18:52 52.47143 7.67206 23300 ft 268 kts 11°
2026-04-28 18:53 52.48943 7.68028 23299 ft 268 kts 11°
2026-04-28 18:53 52.50736 7.68847 23300 ft 268 kts 11°
2026-04-28 18:53 52.52535 7.69669 23307 ft 268 kts 11°
2026-04-28 18:53 52.54308 7.70480 23307 ft 268 kts 11°
2026-04-28 18:54 52.56103 7.71302 23302 ft 268 kts 11°
2026-04-28 18:54 52.57902 7.72126 23304 ft 268 kts 11°
2026-04-28 18:54 52.59699 7.72951 23304 ft 268 kts 11°
2026-04-28 18:54 52.61496 7.73776 23307 ft 268 kts 11°
2026-04-28 18:55 52.63293 7.74601 23308 ft 268 kts 11°
2026-04-28 18:55 52.64484 7.75149 23311 ft 268 kts 11°
2026-04-28 18:55 52.66887 7.76255 23309 ft 268 kts 11°
2026-04-28 18:55 52.68685 7.77083 23314 ft 268 kts 11°
2026-04-28 18:56 52.70453 7.77898 23315 ft 268 kts 11°
2026-04-28 18:56 52.72248 7.78726 23315 ft 268 kts 11°
2026-04-28 18:56 52.74046 7.79557 23316 ft 268 kts 11°
2026-04-28 18:56 52.75838 7.80385 23316 ft 268 kts 11°
2026-04-28 18:57 52.77632 7.81215 23318 ft 268 kts 11°
2026-04-28 18:57 52.79422 7.82044 23320 ft 268 kts 11°
2026-04-28 18:57 52.81219 7.82877 23320 ft 267 kts 11°
2026-04-28 18:57 52.83014 7.83709 23326 ft 267 kts 11°
2026-04-28 18:58 52.84809 7.84542 23324 ft 267 kts 11°
2026-04-28 18:58 52.86588 7.85369 23326 ft 267 kts 11°
2026-04-28 18:58 52.88377 7.86201 23336 ft 267 kts 11°
2026-04-28 18:58 52.90167 7.87034 23334 ft 267 kts 11°
2026-04-28 18:59 52.91961 7.87856 23333 ft 267 kts 11°
2026-04-28 18:59 52.93755 7.88672 23330 ft 267 kts 11°
2026-04-28 18:59 52.95547 7.89508 23341 ft 267 kts 11°
2026-04-28 18:59 52.97336 7.90349 23341 ft 267 kts 11°
2026-04-28 19:00 52.99126 7.91188 23340 ft 267 kts 11°
2026-04-28 19:00 53.00920 7.92026 23339 ft 267 kts 12°
2026-04-28 19:00 53.02712 7.92865 23335 ft 267 kts 12°
2026-04-28 19:00 53.04504 7.93705 23347 ft 267 kts 12°
2026-04-28 19:01 53.06269 7.94533 23345 ft 267 kts 12°
2026-04-28 19:01 53.08063 7.95376 23342 ft 267 kts 12°
2026-04-28 19:01 53.09852 7.96216 23345 ft 267 kts 12°
2026-04-28 19:01 53.11643 7.97058 23284 ft 266 kts 15°
2026-04-28 19:02 53.13392 7.97883 23348 ft 258 kts 15°
2026-04-28 19:02 53.15105 7.98692 23347 ft 254 kts 15°
2026-04-28 19:02 53.16803 7.99492 23352 ft 252 kts 15°
2026-04-28 19:02 53.18484 8.00285 23347 ft 250 kts 15°
2026-04-28 19:03 53.20158 8.01075 23350 ft 249 kts 15°
2026-04-28 19:03 53.21799 8.01851 23355 ft 248 kts 15°
2026-04-28 19:03 53.23462 8.02638 23354 ft 247 kts 15°
2026-04-28 19:03 53.25116 8.03421 23356 ft 247 kts 15°
2026-04-28 19:04 53.26769 8.04204 23358 ft 246 kts 15°
2026-04-28 19:04 53.28417 8.04986 23360 ft 246 kts 15°
2026-04-28 19:04 53.30069 8.05770 23363 ft 246 kts 15°
2026-04-28 19:04 53.31716 8.06552 23362 ft 246 kts 15°
2026-04-28 19:05 53.33364 8.07336 23368 ft 246 kts 15°
2026-04-28 19:05 53.35011 8.08119 23366 ft 246 kts 15°
2026-04-28 19:05 53.36636 8.08893 23365 ft 246 kts 15°
2026-04-28 19:05 53.38283 8.09678 23368 ft 246 kts 15°
2026-04-28 19:06 53.39926 8.10461 23369 ft 245 kts 15°
2026-04-28 19:06 53.41037 8.10992 23372 ft 245 kts 15°
2026-04-28 19:06 53.43213 8.12031 23371 ft 245 kts 15°
2026-04-28 19:06 53.44855 8.12816 23372 ft 245 kts 15°
2026-04-28 19:07 53.46499 8.13602 23372 ft 245 kts 15°
2026-04-28 19:07 53.48141 8.14389 23374 ft 245 kts 15°
2026-04-28 19:07 53.49782 8.15175 23375 ft 245 kts 15°
2026-04-28 19:07 53.51405 8.15953 23372 ft 245 kts 15°
2026-04-28 19:08 53.53044 8.16740 23375 ft 245 kts 15°
2026-04-28 19:08 53.54683 8.17528 23377 ft 245 kts 15°
2026-04-28 19:08 53.56325 8.18317 23379 ft 245 kts 15°
2026-04-28 19:08 53.57960 8.19104 23373 ft 245 kts 15°
2026-04-28 19:09 53.59599 8.19893 23378 ft 245 kts 15°
2026-04-28 19:09 53.61233 8.20680 23378 ft 245 kts 15°
2026-04-28 19:09 53.62853 8.21462 23374 ft 244 kts 15°
2026-04-28 19:09 53.64487 8.22250 23380 ft 244 kts 15°
2026-04-28 19:10 53.66142 8.23050 23378 ft 244 kts 15°
2026-04-28 19:10 53.67756 8.23830 23381 ft 244 kts 15°
2026-04-28 19:10 53.69390 8.24621 23381 ft 244 kts 15°
2026-04-28 19:10 53.71024 8.25412 23379 ft 244 kts 15°
2026-04-28 19:11 53.72660 8.26205 23381 ft 244 kts 15°
2026-04-28 19:11 53.74293 8.26997 23378 ft 244 kts 15°
2026-04-28 19:11 53.75957 8.27805 23105 ft 253 kts 15°
2026-04-28 19:11 53.77684 8.28644 22699 ft 262 kts 16°
2026-04-28 19:12 53.79438 8.29498 22303 ft 268 kts 15°
2026-04-28 19:12 53.81246 8.30379 21908 ft 272 kts 15°
2026-04-28 19:12 53.83050 8.31259 21515 ft 264 kts 16°
2026-04-28 19:12 53.84780 8.32106 21129 ft 254 kts 15°
2026-04-28 19:13 53.86460 8.32926 20747 ft 248 kts 15°
2026-04-28 19:13 53.88109 8.33729 20368 ft 244 kts 15°
2026-04-28 19:13 53.89732 8.34522 20000 ft 242 kts 15°
2026-04-28 19:13 53.91348 8.35313 19630 ft 240 kts 15°
2026-04-28 19:14 53.92927 8.36086 19275 ft 238 kts 15°
2026-04-28 19:14 53.94518 8.36865 18918 ft 237 kts 15°
2026-04-28 19:14 53.96107 8.37644 18596 ft 239 kts 14°
2026-04-28 19:14 53.97711 8.38429 18184 ft 240 kts 14°
2026-04-28 19:15 53.99314 8.39217 17779 ft 240 kts 14°
2026-04-28 19:15 54.00919 8.40007 17379 ft 240 kts 14°
2026-04-28 19:15 54.02521 8.40796 16988 ft 239 kts 14°
2026-04-28 19:15 54.03584 8.41319 16726 ft 239 kts 15°
2026-04-28 19:16 54.05697 8.42360 16216 ft 238 kts 15°
2026-04-28 19:16 54.07286 8.43143 15841 ft 237 kts 15°
2026-04-28 19:16 54.08869 8.43925 15471 ft 236 kts 15°
2026-04-28 19:16 54.10450 8.44706 15093 ft 236 kts 15°
2026-04-28 19:17 54.12021 8.45481 14732 ft 235 kts 15°
2026-04-28 19:17 54.13590 8.46258 14369 ft 234 kts 15°
2026-04-28 19:17 54.15155 8.47033 13982 ft 233 kts 15°
2026-04-28 19:17 54.16711 8.47804 13576 ft 232 kts 15°
2026-04-28 19:18 54.18244 8.48563 13177 ft 231 kts 15°
2026-04-28 19:18 54.19790 8.49329 12788 ft 231 kts 15°
2026-04-28 19:18 54.21330 8.50094 12388 ft 230 kts 15°
2026-04-28 19:18 54.22866 8.50857 12014 ft 229 kts 16°
2026-04-28 19:19 54.24397 8.51619 11630 ft 229 kts 16°
2026-04-28 19:19 54.25925 8.52379 11256 ft 228 kts 16°
2026-04-28 19:19 54.27445 8.53137 10885 ft 227 kts 16°
2026-04-28 19:19 54.28960 8.53892 10517 ft 226 kts 16°
2026-04-28 19:20 54.30471 8.54646 10143 ft 226 kts 16°
2026-04-28 19:20 54.31975 8.55397 9738 ft 225 kts 16°
2026-04-28 19:20 54.33464 8.56141 9345 ft 224 kts 16°
2026-04-28 19:20 54.34962 8.56890 8950 ft 224 kts 16°
2026-04-28 19:21 54.36456 8.57637 8561 ft 223 kts 16°
2026-04-28 19:21 54.37946 8.58384 8178 ft 222 kts 16°
2026-04-28 19:21 54.39427 8.59126 7799 ft 222 kts 16°
2026-04-28 19:21 54.40908 8.59869 7424 ft 220 kts 16°
2026-04-28 19:22 54.42374 8.60605 7047 ft 219 kts 17°
2026-04-28 19:22 54.42846 8.60842 6934 ft 218 kts 17°
2026-04-28 19:22 54.45251 8.62051 6287 ft 215 kts 17°
2026-04-28 19:22 54.46680 8.62769 5896 ft 213 kts 17°
2026-04-28 19:23 54.48100 8.63484 5512 ft 212 kts 17°
2026-04-28 19:23 54.49513 8.64196 5128 ft 211 kts 17°
2026-04-28 19:23 54.50916 8.64903 4735 ft 210 kts 17°
2026-04-28 19:23 54.52310 8.65606 4350 ft 208 kts 17°
2026-04-28 19:24 54.53696 8.66306 3961 ft 207 kts 18°
2026-04-28 19:24 54.55075 8.67001 3602 ft 205 kts 18°
2026-04-28 19:24 54.56411 8.67660 3445 ft 194 kts 18°
2026-04-28 19:24 54.57688 8.68282 3283 ft 187 kts 18°
2026-04-28 19:25 54.58912 8.68875 3124 ft 173 kts 18°
2026-04-28 19:25 54.59998 8.69388 3013 ft 150 kts 17°
2026-04-28 19:25 54.60939 8.69797 2999 ft 131 kts
2026-04-28 19:25 54.61231 8.69750 3005 ft 129 kts 349°
2026-04-28 19:26 54.61835 8.69439 3000 ft 126 kts 349°
2026-04-28 19:26 54.62674 8.69020 3003 ft 126 kts 341°
2026-04-28 19:26 54.63418 8.68253 3007 ft 126 kts 333°
2026-04-28 19:26 54.64158 8.67421 3005 ft 127 kts 331°
2026-04-28 19:27 54.64892 8.66558 3004 ft 128 kts 330°
2026-04-28 19:27 54.65635 8.65670 3006 ft 132 kts 330°
2026-04-28 19:27 54.66409 8.64738 3009 ft 138 kts 329°
2026-04-28 19:27 54.67207 8.63753 3011 ft 143 kts 329°
2026-04-28 19:28 54.68027 8.62754 3012 ft 146 kts 329°
2026-04-28 19:28 54.68576 8.62076 3014 ft 147 kts 329°
2026-04-28 19:28 54.69689 8.60715 3013 ft 149 kts 328°
2026-04-28 19:28 54.70536 8.59676 3012 ft 150 kts 329°
2026-04-28 19:29 54.71387 8.58630 3011 ft 150 kts 328°
2026-04-28 19:29 54.71954 8.57933 3007 ft 150 kts 329°
2026-04-28 19:29 54.72810 8.56884 3008 ft 151 kts 328°
2026-04-28 19:29 54.73666 8.55832 3007 ft 151 kts 329°
2026-04-28 19:30 54.74523 8.54777 3020 ft 151 kts 328°
2026-04-28 19:30 54.75380 8.53728 3021 ft 151 kts 328°
2026-04-28 19:30 54.76235 8.52671 3022 ft 151 kts 328°
2026-04-28 19:30 54.77068 8.51648 3021 ft 136 kts 328°
2026-04-28 19:31 54.77763 8.50789 3014 ft 115 kts 329°
2026-04-28 19:31 54.78374 8.50034 3010 ft 101 kts 329°
2026-04-28 19:31 54.78908 8.49380 2935 ft 89 kts 330°
2026-04-28 19:31 54.79398 8.48778 2814 ft 84 kts 331°
2026-04-28 19:32 54.79869 8.48197 2701 ft 82 kts 332°
2026-04-28 19:32 54.80327 8.47628 2590 ft 80 kts 331°
2026-04-28 19:32 54.80777 8.47076 2482 ft 79 kts 331°
2026-04-28 19:32 54.81224 8.46527 2371 ft 79 kts 331°
2026-04-28 19:33 54.81672 8.45971 2262 ft 79 kts 332°
2026-04-28 19:33 54.82120 8.45419 2154 ft 80 kts 331°
2026-04-28 19:33 54.82578 8.44856 2032 ft 81 kts 331°
2026-04-28 19:33 54.83040 8.44284 1926 ft 82 kts 331°
2026-04-28 19:34 54.83506 8.43706 1807 ft 82 kts 330°
2026-04-28 19:34 54.83975 8.43130 1693 ft 83 kts 330°
2026-04-28 19:34 54.84443 8.42553 1580 ft 82 kts 331°
2026-04-28 19:34 54.84910 8.41972 1461 ft 82 kts 330°
2026-04-28 19:35 54.85371 8.41404 1352 ft 82 kts 330°
2026-04-28 19:35 54.85838 8.40828 1234 ft 82 kts 331°
2026-04-28 19:35 54.86297 8.40257 1120 ft 80 kts 330°
2026-04-28 19:35 54.86747 8.39703 1001 ft 79 kts 330°
2026-04-28 19:36 54.87190 8.39156 880 ft 77 kts 330°
2026-04-28 19:36 54.87624 8.38617 771 ft 76 kts 329°
2026-04-28 19:36 54.88045 8.38097 665 ft 74 kts 328°
2026-04-28 19:36 54.88464 8.37578 551 ft 73 kts 328°
2026-04-28 19:37 54.88876 8.37066 438 ft 72 kts 327°
2026-04-28 19:37 54.89147 8.36733 376 ft 71 kts 327°
2026-04-28 19:37 54.89675 8.36074 238 ft 69 kts 326°
2026-04-28 19:37 54.90064 8.35601 140 ft 66 kts 326°
2026-04-28 19:38 54.90423 8.35157 54 ft 60 kts 326°
2026-04-28 19:38 54.90725 8.34803 54 ft 47 kts 323°
2026-04-28 19:38 54.90961 8.34496 56 ft 38 kts 323°
2026-04-28 19:38 54.91164 8.34240 56 ft 34 kts 324°
2026-04-28 19:39 54.91310 8.34060 55 ft 11 kts 306°
2026-04-28 19:39 54.91271 8.33896 51 ft 21 kts 240°
2026-04-28 19:39 54.91187 8.33642 52 ft 27 kts 240°
2026-04-28 19:39 54.91087 8.33357 53 ft 28 kts 239°
2026-04-28 19:40 54.91020 8.33145 54 ft 15 kts 241°
2026-04-28 19:40 54.90987 8.33042 55 ft 0 kts 240°
2026-04-28 19:40 54.90985 8.33028 55 ft 5 kts 274°
2026-04-28 19:40 54.91025 8.32968 55 ft 11 kts 321°
2026-04-28 19:41 54.91083 8.32858 54 ft 14 kts 312°
2026-04-28 19:41 54.91149 8.32730 54 ft 14 kts 310°
2026-04-28 19:41 54.91214 8.32615 54 ft 13 kts 321°
2026-04-28 19:41 54.91289 8.32537 53 ft 10 kts 338°
2026-04-28 19:42 54.91346 8.32508 53 ft 9 kts 349°
2026-04-28 19:42 54.91398 8.32500 51 ft 6 kts 317°
2026-04-28 19:42 54.91390 8.32431 53 ft 5 kts 195°
2026-04-28 19:42 54.91377 8.32436 54 ft 0 kts 148°